Location: *
(32.5167°S, 63.0167°E)
Time: 22:32:57
(UTC+00:00)

Daily predictions for brighter satellites

Satellite Brightness Start Highest point End
(mag) Time Altitude Azimuth Time Altitude Azimuth Time Altitude Azimuth
Radarsat Rocket 4.5 13:49:03 10° SSE 13:56:38 62° ENE 14:03:12 10° N
Cosmos 1048 Rocket 4.0 13:51:31 10° SSW 13:56:43 84° ESE 14:01:52 10° NNE
SAR-Lupe-1 4.2 13:53:31 10° NNE 13:57:01 52° ESE 14:00:34 10° S
Cosmos 1315 Rocket 3.3 13:53:53 10° S 13:57:53 42° E 14:01:49 10° NNE
Cosmos 1544 Rocket 4.0 13:55:55 10° S 14:00:13 42° E 14:04:27 10° NNE
Cosmos 1536 Rocket 4.1 13:56:35 10° NNE 14:00:43 38° E 14:04:56 10° SSE
Cosmos 1656 Rocket 4.3 13:56:28 10° NNW 14:02:05 62° WSW 14:07:47 10° SSE
Cosmos 2369 Rocket 3.9 13:57:31 10° NW 14:02:45 36° WSW 14:08:02 10° S
Meteor 2-5 Rocket 4.4 13:58:38 10° NNE 14:03:27 32° E 14:08:20 10° SSE
Cosmos 1725 Rocket 4.5 14:03:31 10° SSW 14:09:43 68° W 14:15:51 10° N
Cosmos 1689 Rocket 2.1 14:07:55 10° N 14:10:44 79° WNW 14:13:37 10° SSW
Cosmos 1300 4.3 14:11:30 10° SE 14:13:53 16° ESE 14:15:40 12° ENE
CORIOLIS 4.1 14:08:34 10° SSE 14:14:00 80° ENE 14:19:24 10° N
Abrixas rocket 1.9 14:12:13 10° WSW 14:14:22 51° NW 14:16:29 10° NE
Cosmos 1455 Rocket 3.4 14:10:47 10° S 14:15:16 73° W 14:19:42 10° N
SL-14 R/B 3.6 14:11:42 10° NNE 14:15:31 43° E 14:19:25 10° SSE
H-2A R/B 2.5 14:11:48 10° SSE 14:16:10 64° E 14:20:17 10° N
Hubble Space Telescope 3.4 14:16:09 10° NW 14:18:07 13° NNW 14:20:05 10° N
Meteor 1-24 Rocket 4.2 14:14:14 10° NNE 14:18:57 33° E 14:23:44 10° SSE
SeaSat 1 4.3 14:19:21 12° ESE 14:20:18 12° SE 14:22:11 10° SSE
Cosmos 1626 2.0 14:17:06 10° N 14:20:47 83° E 14:24:33 10° S
Okean O Rocket 1.5 14:17:50 10° SSE 14:22:14 70° ENE 14:26:36 10° N
Cosmos 1607 3.8 14:16:17 10° NNW 14:22:25 74° ENE 14:28:30 10° SSE
FengYun 1-2 T 4.3 14:17:29 10° SSE 14:23:13 87° WSW 14:28:49 10° NNW
Cosmos 1269 Rocket 4.4 14:19:04 10° S 14:24:05 41° ESE 14:29:04 10° NE
SL-4 R/B 3.4 14:25:38 10° SSW 14:28:16 19° SE 14:29:19 17° ESE
Cosmos 1818 4.3 14:31:01 10° S 14:35:48 31° SE 14:38:14 22° E
DMSP B5D2-2 4.2 14:30:46 10° N 14:36:03 80° WNW 14:41:26 10° SSW
ERS-2 3.5 14:32:56 10° N 14:36:25 42° W 14:39:57 10° SSW
CZ-2C R/B 3.1 14:32:07 10° SSE 14:37:42 78° ENE 14:42:54 10° N
USA 267 3.8 14:32:01 10° SE 14:38:30 60° SW 14:44:56 10° WNW
H-2A R/B 2.6 14:35:58 10° SSE 14:41:03 38° E 14:46:00 10° NNE
X-37B 2.9 14:39:02 10° WSW 14:41:30 20° SSW 14:43:34 12° SSE
CZ-4 R/B 2.1 14:42:45 29° E 14:43:12 30° E 14:46:46 10° NNE
ATLAS 2AS CENTAUR R/B 3.3 14:39:47 10° SW 14:46:46 65° WNW 14:54:13 10° NNE
Cosmos 1908 4.5 14:44:24 10° SSW 14:48:12 45° W 14:51:56 10° NNW
BREEZE-M DEB (TANK) 2.3 14:44:38 10° NW 14:49:49 80° NE 14:50:28 49° ESE
CZ-2D R/B 3.4 14:49:25 10° S 14:53:18 73° WSW 14:57:09 10° NNW
Cosmos 1939 Rocket 4.4 14:51:50 10° S 14:55:29 37° WSW 14:59:08 10° NW
Cosmos 1461 2.7 14:53:48 10° NNW 14:57:39 80° WSW 15:00:00 23° SSE
Cosmos 2228 3.8 14:57:29 10° S 15:00:38 34° SE 15:00:38 34° SE
Cosmos 2346 Rocket 4.3 14:56:38 10° N 15:02:41 80° E 15:08:52 10° S
CZ-4 R/B 4.4 14:59:49 10° S 15:04:03 85° W 15:08:11 10° NNW
USA 234 4.4 15:06:53 23° SE 15:08:17 25° SSE 15:13:24 10° SSW
SL-27 R/B 4.2 15:07:26 10° SW 15:10:46 34° WNW 15:14:04 10° NNW
Cosmos 1867 3.8 15:05:30 10° NW 15:10:52 67° WSW 15:16:15 10° SSE
ASTRO E2 3.1 15:14:35 10° WNW 15:18:02 52° NNW 15:18:02 52° NNW
YAOGAN 1 3.4 15:22:10 38° N 15:22:10 38° N 15:24:53 10° N
ATLAS CENTAUR R/B 3.6 15:22:08 10° N 15:23:29 18° N 15:23:29 18° N
RESURS DK-1 3.9 15:23:45 10° SSW 15:25:44 26° S 15:25:44 26° S
DELTA 2 R/B (1) 4.2 15:30:45 10° WSW 15:36:05 43° S 15:36:13 43° SSE
Cosmos 2034 Rocket 3.9 15:31:06 10° S 15:37:21 86° W 15:41:29 22° N
Cosmos 44 4.0 15:41:33 10° SW 15:44:59 45° W 15:44:59 45° W
ARGOS 3.2 15:40:28 10° S 15:45:58 79° WSW 15:51:24 10° NNW
Cosmos 371 Rocket 4.2 15:42:18 10° NNW 15:45:36 42° NW 15:45:36 42° NW
Meteor 2-10 Rocket 4.4 15:44:55 10° S 15:48:10 39° SSW 15:48:10 39° SSW
SeaSat 1 3.6 15:59:09 37° SSW 15:59:09 37° SSW 16:02:08 10° SSW
Milstar 3 4.2 15:40:47 10° W 15:58:11 56° NNW 16:01:42 42° NNE
CZ-4 R/B 4.3 16:18:49 15° W 16:18:49 15° W 16:20:24 10° WNW
H-2A R/B 4.3 16:15:55 10° SSW 16:20:09 23° WSW 16:24:19 10° WNW
ATLAS 2A CENTAUR R/B 4.3 16:28:26 10° WNW 16:46:35 44° NNW 16:46:35 44° NNW
CZ-3A R/B 3.9 23:10:56 71° NE 23:10:56 71° NE 23:20:44 10° NE
NOSS 3-1 (C) 4.4 23:26:36 48° N 23:29:13 68° ENE 23:37:25 10° SE
Atlas 2A Centaur Rocket 4.3 23:36:02 50° NW 23:39:30 64° N 23:45:00 10° E
ADEOS Rocket 4.1 23:34:05 10° S 23:36:55 31° S 23:36:55 31° S
ADEOS 4.0 23:38:36 10° NNE 23:43:44 60° ESE 23:48:56 10° S
Meteor 2-20 4.5 23:40:29 10° S 23:46:38 75° E 23:52:42 10° N
